Weather in Vyl'yb

Russia / Komi Republic     62°08′55″N   52°28′10″E
temp.,
°C
wind,
m/s
gust,
m/s
humid.,
%
clouds,
%
prec.,
mm/h
press.,
hPa
HPBL,
m
25 february, thu
thu2500:00−24s129986 0.0 103120
03:00−26s229962 0.0 103019
06:00−27s239930 0.0 102841
09:00−22sse369316 0.0 1026229
12:00−17sse368720 0.0 1024396
15:00−15sse498641 0.0 1023528
18:00−19sse311952 0.0 1022289
21:00−21sse399632 0.0 1022219
26 february, fri
fri2600:00−23sse399799 0.0 1022195
03:00−24sse389592 0.0 1022227
06:00−24sse389496 0.0 1021250
09:00−22sse489197 0.0 1020321
12:00−18sse498999 0.0 1018480
15:00−16sse4108999 0.0 1016543
18:00−19sse41293100 0.0 1015478
21:00−20sse41194100 0.0 1014470
27 february, sat
sat2700:00−21se3109697 0.0 1013369
03:00−22ese399690 0.0 1014283
06:00−23ese399665 0.0 1012260
09:00−19se389260 0.0 1013371
12:00−14se368878 0.0 1012435
15:00−12ese368874 0.0 1012524
18:00−17e239424 0.0 101226
21:00−19e229612 0.0 101420
28 february, sun
sun2800:00−20ese129919 0.0 101420
03:00−22se229943 0.0 101520
06:00−23se129667 0.0 101520
09:00−19sse129056 0.0 1016163
12:00−14ssw12830 0.0 1016354
15:00−13ssw11847 0.0 1016333
18:00−19wsw119418 0.0 101720
21:00−20wsw119617 0.0 101820
1 march, mon
mon100:00−20wsw129715 0.0 101820
03:00−21sw22988 0.0 101924
06:00−21sw239972 0.0 101945
09:00−17ssw369571 0.0 1017232
12:00−12ssw489393 0.0 1015370
15:00−10ssw5109396 0.1 1012452
18:00−9ssw51392100 0.1 1008563
21:00−8sw51394100 1.1 1004687